This demonstration page uses our WeatherBlox Daily Observations layout. Learn more.

Left ArrowRight Arrow

Hourly Observations for June 22, 2015

Temp ( °F °C ) Dew Point ( °F °C ) Humidity (%) Winds ( mph kmh ) Pressure ( in mb ) Visibility ( mi km ) Precip ( " mm )
12:51 am 00:51 Clear 85 29.4 46 7.8 26 26 NW 9 15 29.74 1007 10 16 0.00 0.00
1:51 am 01:51 Clear 83 28.3 45 7.2 26 26 WNW 8 13 29.74 1007 10 16 0.00 0.00
2:51 am 02:51 Clear 81 27.2 45 7.2 28 28 WNW 9 15 29.74 1007 10 16 0.00 0.00
3:51 am 03:51 Clear 79 26.1 44 6.7 29 29 WNW 9 15 29.75 1008 10 16 0.00 0.00
4:51 am 04:51 Clear 78 25.6 43 6.1 29 29 NW 12 19 29.78 1008 10 16 0.00 0.00
5:51 am 05:51 Sunny 82 27.8 44 6.7 26 26 NW 13 20 29.79 1009 10 16 0.00 0.00
6:51 am 06:51 Sunny 83 28.3 45 7.2 26 26 WNW 14 22 29.81 1010 10 16 0.00 0.00
7:51 am 07:51 Sunny 89 31.7 46 7.8 23 23 NW 21 33 29.82 1010 10 16 0.00 0.00
8:51 am 08:51 Sunny 92 33.3 47 8.3 21 21 WNW 21 33 29.81 1010 10 16 0.00 0.00
9:51 am 09:51 Sunny 96 35.6 46 7.8 18 18 W 22 35 29.80 1009 10 16 0.00 0.00
10:51 am 10:51 Sunny 99 37.2 42 5.6 14 14 WNW 24 39 29.78 1009 10 16 0.00 0.00
11:51 am 11:51 Sunny 102 38.9 41 5 12 12 WNW 24 39 29.76 1008 10 16 0.00 0.00
12:51 pm 12:51 Sunny 104 40 40 4.4 11 11 NW 21 33 29.74 1007 10 16 0.00 0.00
1:51 pm 13:51 Sunny 106 41.1 38 3.3 10 10 WNW 16 26 29.71 1006 10 16 0.00 0.00
2:51 pm 14:51 Sunny 107 41.7 37 2.8 9 9 WNW 24 39 29.68 1005 10 16 0.00 0.00
3:51 pm 15:51 Sunny 107 41.7 39 3.9 10 10 NW 17 28 29.66 1005 10 16 0.00 0.00
4:51 pm 16:51 Sunny 106 41.1 40 4.4 10 10 WNW 25 41 29.64 1004 10 16 0.00 0.00
5:51 pm 17:51 Sunny 105 40.6 40 4.4 11 11 NW 21 33 29.65 1004 10 16 0.00 0.00
6:51 pm 18:51 Sunny 100 37.8 40 4.4 13 13 VRB 6 9 29.69 1005 10 16 0.00 0.00
7:24 pm 19:24 Sunny 99 37 39 4 13 13 N 14 22 29.59 1002 10 16 0.00 0.00
7:51 pm 19:51 Clear 97 36.1 35 1.7 11 11 WNW 20 31 29.66 1005 10 16 0.00 0.00
8:51 pm 20:51 Clear 78 25.6 73 22.8 85 85 NW 16 26 29.54 1000 10 16 0.00 0.00
9:51 pm 21:51 Clear 92 33.3 33 0.6 12 12 NW 17 28 29.73 1007 10 16 0.00 0.00
10:51 pm 22:51 Clear 89 31.7 32 0 13 13 NW 14 22 29.75 1007 10 16 0.00 0.00
11:51 pm 23:51 Clear 88 31.1 32 0 13 13 NW 16 26 29.75 1008 10 16 0.00 0.00

Powered by AerisWeather